DLH69B EPRA-EDFH

Flight info

Callsign DLH69B
Flight time 1h 22m
Altitude 36000
Route RUXOM DCT LALUK DCT GASKA DCT RUDUS Z656 OLGIL OLGIL4B
Aircraft A319/M-SDE3FGHIRWY/LB1

Departure

Time 2026-04-23 01:21
Airport Warsaw Radom Airport (EPRA)

Arrival

Time 2026-04-23 02:44
Airport Frankfurt-Hahn Airport (EDFH)
Time Latitude Longitude Altitude Speed Heading
2026-04-23 00:42 51.39041 21.20176 618 ft 0 kts 344°
2026-04-23 00:56 51.39029 21.20182 631 ft 4 kts 345°
2026-04-23 00:56 51.39003 21.20191 625 ft 4 kts 357°
2026-04-23 00:56 51.38977 21.20187 621 ft 4 kts 28°
2026-04-23 00:56 51.38963 21.20164 632 ft 1 kts 75°
2026-04-23 00:57 51.38962 21.20158 632 ft 0 kts 75°
2026-04-23 01:11 51.38967 21.20186 625 ft 5 kts 75°
2026-04-23 01:11 51.38980 21.20266 620 ft 10 kts 75°
2026-04-23 01:11 51.38996 21.20357 618 ft 0 kts 75°
2026-04-23 01:11 51.38997 21.20362 618 ft 1 kts 68°
2026-04-23 01:12 51.39001 21.20378 631 ft 3 kts 66°
2026-04-23 01:12 51.39017 21.20421 624 ft 5 kts 57°
2026-04-23 01:12 51.39033 21.20482 628 ft 10 kts 73°
2026-04-23 01:12 51.39058 21.20648 630 ft 20 kts 76°
2026-04-23 01:13 51.39093 21.20861 623 ft 20 kts 75°
2026-04-23 01:13 51.39126 21.21076 619 ft 20 kts 76°
2026-04-23 01:13 51.39160 21.21291 630 ft 20 kts 76°
2026-04-23 01:13 51.39193 21.21506 623 ft 20 kts 76°
2026-04-23 01:14 51.39228 21.21727 618 ft 20 kts 76°
2026-04-23 01:14 51.39263 21.21946 622 ft 20 kts 76°
2026-04-23 01:14 51.39279 21.22148 618 ft 18 kts 112°
2026-04-23 01:14 51.39176 21.22226 623 ft 17 kts 166°
2026-04-23 01:15 51.39166 21.22229 618 ft 0 kts 166°
2026-04-23 01:18 51.39144 21.22238 621 ft 7 kts 166°
2026-04-23 01:18 51.39102 21.22254 623 ft 5 kts 166°
2026-04-23 01:19 51.39074 21.22261 624 ft 3 kts 180°
2026-04-23 01:19 51.39067 21.22250 625 ft 1 kts 233°
2026-04-23 01:19 51.39065 21.22243 625 ft 0 kts 243°
2026-04-23 01:19 51.39065 21.22241 625 ft 0 kts 246°
2026-04-23 01:20 51.39061 21.22224 623 ft 5 kts 251°
2026-04-23 01:21 51.39004 21.21888 620 ft 74 kts 255°
2026-04-23 01:21 51.38800 21.20657 664 ft 146 kts 259°
2026-04-23 01:21 51.38537 21.18977 1200 ft 163 kts 260°
2026-04-23 01:21 51.38249 21.17232 2092 ft 164 kts 264°
2026-04-23 01:22 51.37940 21.15373 2556 ft 183 kts 264°
2026-04-23 01:22 51.37596 21.13268 2919 ft 209 kts 263°
2026-04-23 01:22 51.37207 21.10891 3400 ft 233 kts 263°
2026-04-23 01:22 51.36772 21.08261 4004 ft 254 kts 262°
2026-04-23 01:23 51.36435 21.05468 4940 ft 257 kts 269°
2026-04-23 01:23 51.36223 21.02667 5918 ft 259 kts 270°
2026-04-23 01:23 51.36045 20.99765 6358 ft 263 kts 271°
2026-04-23 01:23 51.35877 20.96850 6500 ft 264 kts 271°
2026-04-23 01:24 51.35709 20.93931 6515 ft 264 kts 270°
2026-04-23 01:24 51.35536 20.91016 6529 ft 263 kts 270°
2026-04-23 01:24 51.35377 20.88099 6613 ft 266 kts 272°
2026-04-23 01:24 51.35297 20.85125 7511 ft 267 kts 274°
2026-04-23 01:25 51.35247 20.82150 8518 ft 269 kts 274°
2026-04-23 01:25 51.35218 20.80157 9085 ft 273 kts 274°
2026-04-23 01:25 51.35173 20.77099 9426 ft 276 kts 274°
2026-04-23 01:25 51.35120 20.74028 9525 ft 276 kts 274°
2026-04-23 01:26 51.35062 20.70959 9537 ft 276 kts 274°
2026-04-23 01:26 51.34998 20.67894 9544 ft 276 kts 273°
2026-04-23 01:26 51.34932 20.64834 9545 ft 276 kts 274°
2026-04-23 01:26 51.34865 20.61764 9602 ft 278 kts 273°
2026-04-23 01:27 51.34774 20.57552 10519 ft 293 kts 274°
2026-04-23 01:27 51.34731 20.55346 10749 ft 307 kts 274°
2026-04-23 01:27 51.34660 20.51862 11383 ft 317 kts 273°
2026-04-23 01:27 51.34580 20.48302 12154 ft 323 kts 274°
2026-04-23 01:28 51.34494 20.44690 12944 ft 328 kts 274°
2026-04-23 01:28 51.34289 20.41016 13722 ft 339 kts 264°
2026-04-23 01:28 51.33456 20.37355 14395 ft 355 kts 247°
2026-04-23 01:28 51.31961 20.34128 15037 ft 370 kts 229°
2026-04-23 01:29 51.29857 20.31648 15665 ft 383 kts 210°
2026-04-23 01:29 51.27417 20.29846 16304 ft 389 kts 210°
2026-04-23 01:29 51.25263 20.27267 16905 ft 388 kts 230°
2026-04-23 01:29 51.23652 20.23847 17522 ft 386 kts 245°
2026-04-23 01:30 51.22568 20.19952 18148 ft 384 kts 258°
2026-04-23 01:30 51.22005 20.15801 18707 ft 382 kts 270°
2026-04-23 01:30 51.21821 20.11579 19280 ft 383 kts 272°
2026-04-23 01:30 51.21650 20.07372 19874 ft 387 kts 272°
2026-04-23 01:31 51.21475 20.03075 20463 ft 390 kts 272°
2026-04-23 01:31 51.21297 19.98742 21056 ft 393 kts 272°
2026-04-23 01:31 51.21118 19.94377 21646 ft 396 kts 271°
2026-04-23 01:31 51.20938 19.89977 22226 ft 399 kts 271°
2026-04-23 01:32 51.20755 19.85538 22770 ft 403 kts 271°
2026-04-23 01:32 51.20570 19.81058 23333 ft 407 kts 271°
2026-04-23 01:32 51.20379 19.76541 23850 ft 410 kts 271°
2026-04-23 01:32 51.20186 19.71989 24309 ft 413 kts 271°
2026-04-23 01:33 51.19989 19.67401 24770 ft 416 kts 271°
2026-04-23 01:33 51.19788 19.62783 25224 ft 419 kts 271°
2026-04-23 01:33 51.19585 19.58132 25665 ft 422 kts 271°
2026-04-23 01:33 51.19377 19.53454 26107 ft 425 kts 271°
2026-04-23 01:34 51.19165 19.48738 26538 ft 428 kts 271°
2026-04-23 01:34 51.18952 19.43998 26963 ft 430 kts 271°
2026-04-23 01:34 51.18737 19.39223 27379 ft 433 kts 271°
2026-04-23 01:34 51.18519 19.34423 27784 ft 436 kts 271°
2026-04-23 01:35 51.18298 19.29585 28176 ft 439 kts 271°
2026-04-23 01:35 51.18074 19.24718 28590 ft 442 kts 271°
2026-04-23 01:35 51.17844 19.19820 28995 ft 445 kts 271°
2026-04-23 01:35 51.17608 19.14881 29374 ft 449 kts 271°
2026-04-23 01:36 51.17370 19.09900 29724 ft 453 kts 271°
2026-04-23 01:36 51.17128 19.04884 30107 ft 455 kts 271°
2026-04-23 01:36 51.16880 18.99837 30431 ft 458 kts 271°
2026-04-23 01:36 51.16629 18.94762 30733 ft 461 kts 271°
2026-04-23 01:37 51.16377 18.89651 31043 ft 464 kts 271°
2026-04-23 01:37 51.16122 18.84512 31335 ft 467 kts 271°
2026-04-23 01:37 51.15862 18.79339 31628 ft 470 kts 271°
2026-04-23 01:37 51.15598 18.74143 31977 ft 471 kts 271°
2026-04-23 01:38 51.15331 18.68951 32396 ft 471 kts 271°
2026-04-23 01:38 51.15061 18.63754 32794 ft 471 kts 271°
2026-04-23 01:38 51.14789 18.58563 33187 ft 471 kts 271°
2026-04-23 01:38 51.14513 18.53361 33587 ft 471 kts 271°
2026-04-23 01:39 51.14236 18.48162 33997 ft 471 kts 271°
2026-04-23 01:39 51.13958 18.42963 34346 ft 471 kts 271°
2026-04-23 01:39 51.13680 18.37765 34670 ft 472 kts 271°
2026-04-23 01:39 51.13400 18.32557 35002 ft 472 kts 270°
2026-04-23 01:40 51.13112 18.27345 35251 ft 473 kts 270°
2026-04-23 01:40 51.12816 18.22121 35538 ft 474 kts 270°
2026-04-23 01:40 51.12515 18.16888 35829 ft 475 kts 270°
2026-04-23 01:40 51.12221 18.11722 36076 ft 476 kts 270°
2026-04-23 01:41 51.11629 18.01246 36151 ft 469 kts 269°
2026-04-23 01:41 51.11037 17.91002 36148 ft 468 kts 269°
2026-04-23 01:42 51.10435 17.80699 36166 ft 467 kts 269°
2026-04-23 01:42 51.09826 17.70391 36162 ft 468 kts 269°
2026-04-23 01:43 51.09203 17.60082 36168 ft 468 kts 268°
2026-04-23 01:43 51.08565 17.49768 36165 ft 468 kts 268°
2026-04-23 01:44 51.07922 17.39465 36170 ft 468 kts 268°
2026-04-23 01:44 51.07274 17.29172 36177 ft 468 kts 268°
2026-04-23 01:45 51.06621 17.18876 36161 ft 468 kts 268°
2026-04-23 01:45 51.05951 17.08572 36170 ft 469 kts 268°
2026-04-23 01:46 51.05266 16.98272 36175 ft 469 kts 268°
2026-04-23 01:46 51.04574 16.87970 36184 ft 469 kts 267°
2026-04-23 01:47 51.03875 16.77659 36186 ft 469 kts 267°
2026-04-23 01:47 51.03165 16.67350 36169 ft 470 kts 267°
2026-04-23 01:48 51.02445 16.57039 36182 ft 470 kts 267°
2026-04-23 01:48 51.01726 16.46713 36189 ft 470 kts 267°
2026-04-23 01:49 51.00993 16.36398 36198 ft 470 kts 266°
2026-04-23 01:49 51.00252 16.26114 36199 ft 470 kts 266°
2026-04-23 01:50 50.99497 16.15793 36193 ft 471 kts 266°
2026-04-23 01:50 50.98726 16.05460 36199 ft 471 kts 266°
2026-04-23 01:51 50.97951 15.95131 36214 ft 472 kts 266°
2026-04-23 01:51 50.97168 15.84802 36217 ft 472 kts 266°
2026-04-23 01:52 50.96377 15.74469 36235 ft 472 kts 266°
2026-04-23 01:52 50.95574 15.64131 36214 ft 472 kts 265°
2026-04-23 01:53 50.94769 15.53861 36224 ft 473 kts 265°
2026-04-23 01:53 50.93943 15.43515 36231 ft 473 kts 265°
2026-04-23 01:54 50.93109 15.33163 36235 ft 473 kts 265°
2026-04-23 01:54 50.92272 15.22815 36225 ft 473 kts 265°
2026-04-23 01:55 50.91419 15.12470 36238 ft 473 kts 264°
2026-04-23 01:55 50.90559 15.02127 36244 ft 474 kts 264°
2026-04-23 01:56 50.89689 14.91787 36247 ft 474 kts 264°
2026-04-23 01:56 50.88813 14.81447 36252 ft 474 kts 264°
2026-04-23 01:57 50.87931 14.71113 36233 ft 474 kts 264°
2026-04-23 01:57 50.87032 14.60778 36256 ft 474 kts 263°
2026-04-23 01:58 50.86118 14.50437 36251 ft 474 kts 263°
2026-04-23 01:58 50.85198 14.40096 36268 ft 475 kts 263°
2026-04-23 01:59 50.84275 14.29748 36268 ft 475 kts 263°
2026-04-23 01:59 50.83346 14.19397 36266 ft 475 kts 263°
2026-04-23 02:00 50.82408 14.09054 36268 ft 475 kts 263°
2026-04-23 02:00 50.81448 13.98720 36280 ft 475 kts 263°
2026-04-23 02:01 50.80478 13.88389 36285 ft 475 kts 262°
2026-04-23 02:01 50.79413 13.78091 36294 ft 475 kts 261°
2026-04-23 02:02 50.78256 13.67887 36292 ft 475 kts 261°
2026-04-23 02:02 50.77083 13.57629 36309 ft 475 kts 260°
2026-04-23 02:03 50.75925 13.47357 36292 ft 475 kts 260°
2026-04-23 02:03 50.74766 13.37091 36313 ft 475 kts 260°
2026-04-23 02:04 50.73596 13.26831 36310 ft 475 kts 260°
2026-04-23 02:04 50.72419 13.16575 36307 ft 475 kts 260°
2026-04-23 02:05 50.71232 13.06322 36304 ft 475 kts 259°
2026-04-23 02:05 50.70032 12.96074 36317 ft 475 kts 259°
2026-04-23 02:06 50.68824 12.85831 36312 ft 475 kts 259°
2026-04-23 02:06 50.67607 12.75601 36324 ft 475 kts 259°
2026-04-23 02:07 50.66382 12.65367 36314 ft 475 kts 259°
2026-04-23 02:07 50.65148 12.55147 36336 ft 475 kts 259°
2026-04-23 02:08 50.63903 12.44914 36326 ft 475 kts 259°
2026-04-23 02:08 50.62647 12.34688 36333 ft 475 kts 259°
2026-04-23 02:09 50.61381 12.24467 36332 ft 476 kts 259°
2026-04-23 02:09 50.60108 12.14247 36333 ft 476 kts 258°
2026-04-23 02:10 50.58829 12.04037 36342 ft 476 kts 258°
2026-04-23 02:10 50.57551 11.93900 36351 ft 475 kts 258°
2026-04-23 02:11 50.56256 11.83719 36348 ft 475 kts 258°
2026-04-23 02:11 50.54946 11.73549 36348 ft 474 kts 258°
2026-04-23 02:12 50.53631 11.63391 36340 ft 474 kts 258°
2026-04-23 02:12 50.52535 11.54954 36355 ft 474 kts 258°
2026-04-23 02:13 50.51210 11.44823 36365 ft 473 kts 257°
2026-04-23 02:13 50.49876 11.34698 36377 ft 473 kts 257°
2026-04-23 02:14 50.48535 11.24581 36376 ft 473 kts 257°
2026-04-23 02:14 50.47184 11.14474 36368 ft 473 kts 257°
2026-04-23 02:15 50.45130 10.99331 36370 ft 473 kts 257°
2026-04-23 02:16 50.43755 10.89242 36378 ft 473 kts 257°
2026-04-23 02:16 50.42375 10.79162 36378 ft 473 kts 257°
2026-04-23 02:17 50.40982 10.69093 36379 ft 472 kts 257°
2026-04-23 02:17 50.39593 10.59036 36380 ft 472 kts 256°
2026-04-23 02:18 50.38194 10.48995 36391 ft 471 kts 256°
2026-04-23 02:18 50.36782 10.38977 36390 ft 471 kts 256°
2026-04-23 02:19 50.35363 10.29039 36384 ft 471 kts 256°
2026-04-23 02:19 50.33994 10.19013 36382 ft 471 kts 257°
2026-04-23 02:20 50.32728 10.08955 36379 ft 471 kts 257°
2026-04-23 02:20 50.31460 9.98897 35945 ft 472 kts 257°
2026-04-23 02:20 50.30800 9.93821 34967 ft 481 kts 256°
2026-04-23 02:21 50.30129 9.88734 34604 ft 474 kts 255°
2026-04-23 02:21 50.29459 9.83696 33987 ft 473 kts 255°
2026-04-23 02:21 50.28789 9.78684 33433 ft 469 kts 255°
2026-04-23 02:21 50.28124 9.73704 32889 ft 466 kts 255°
2026-04-23 02:22 50.27464 9.68760 32339 ft 464 kts 255°
2026-04-23 02:22 50.26808 9.63839 31799 ft 461 kts 255°
2026-04-23 02:22 50.26155 9.58946 31274 ft 459 kts 256°
2026-04-23 02:22 50.25503 9.54075 30768 ft 456 kts 255°
2026-04-23 02:23 50.24851 9.49236 30209 ft 454 kts 256°
2026-04-23 02:23 50.24201 9.44434 29702 ft 449 kts 256°
2026-04-23 02:23 50.23553 9.39688 29228 ft 444 kts 256°
2026-04-23 02:23 50.22909 9.34997 28748 ft 440 kts 256°
2026-04-23 02:24 50.22268 9.30349 28274 ft 435 kts 256°
2026-04-23 02:24 50.21635 9.25753 27809 ft 431 kts 256°
2026-04-23 02:24 50.21008 9.21192 27335 ft 428 kts 256°
2026-04-23 02:24 50.20383 9.16662 26857 ft 425 kts 256°
2026-04-23 02:25 50.19763 9.12171 26365 ft 422 kts 256°
2026-04-23 02:25 50.19144 9.07705 25881 ft 420 kts 256°
2026-04-23 02:25 50.18527 9.03275 25485 ft 415 kts 256°
2026-04-23 02:25 50.17908 8.98870 24974 ft 415 kts 256°
2026-04-23 02:26 50.17296 8.94527 24657 ft 408 kts 256°
2026-04-23 02:26 50.16691 8.90219 24230 ft 405 kts 256°
2026-04-23 02:26 50.16091 8.85944 23797 ft 402 kts 257°
2026-04-23 02:26 50.15493 8.81708 23314 ft 398 kts 257°
2026-04-23 02:27 50.14895 8.77507 22825 ft 395 kts 257°
2026-04-23 02:27 50.14299 8.73339 22343 ft 393 kts 257°
2026-04-23 02:27 50.13707 8.69196 21873 ft 390 kts 257°
2026-04-23 02:27 50.13118 8.65085 21396 ft 387 kts 257°
2026-04-23 02:28 50.12533 8.61001 20929 ft 385 kts 257°
2026-04-23 02:28 50.11948 8.56944 20463 ft 383 kts 257°
2026-04-23 02:28 50.11367 8.52916 20021 ft 380 kts 257°
2026-04-23 02:28 50.10788 8.48910 19573 ft 378 kts 257°
2026-04-23 02:29 50.10211 8.44924 19130 ft 376 kts 257°
2026-04-23 02:29 50.09635 8.40960 18708 ft 374 kts 257°
2026-04-23 02:29 50.09062 8.37025 18184 ft 371 kts 257°
2026-04-23 02:29 50.08491 8.33124 17632 ft 368 kts 257°
2026-04-23 02:30 50.07923 8.29266 17056 ft 364 kts 257°
2026-04-23 02:30 50.07359 8.25449 16516 ft 360 kts 257°
2026-04-23 02:30 50.06802 8.21674 15990 ft 356 kts 257°
2026-04-23 02:30 50.06254 8.17953 15578 ft 350 kts 257°
2026-04-23 02:31 50.05713 8.14300 15175 ft 343 kts 257°
2026-04-23 02:31 50.05182 8.10718 14788 ft 337 kts 257°
2026-04-23 02:31 50.04660 8.07199 14422 ft 331 kts 257°
2026-04-23 02:31 50.04107 8.03756 14043 ft 325 kts 256°
2026-04-23 02:32 50.03528 8.00391 13662 ft 319 kts 255°
2026-04-23 02:32 50.02944 7.97096 13302 ft 313 kts 255°
2026-04-23 02:32 50.02369 7.93867 12950 ft 307 kts 255°
2026-04-23 02:32 50.01807 7.90697 12590 ft 302 kts 255°
2026-04-23 02:33 50.01259 7.87581 12243 ft 296 kts 256°
2026-04-23 02:33 50.00722 7.84515 11896 ft 291 kts 256°
2026-04-23 02:33 50.00195 7.81503 11538 ft 287 kts 256°
2026-04-23 02:33 49.99677 7.78543 11317 ft 278 kts 256°
2026-04-23 02:34 49.99319 7.75644 10967 ft 273 kts 268°
2026-04-23 02:34 49.99403 7.72703 10494 ft 272 kts 282°
2026-04-23 02:34 49.99908 7.69917 10149 ft 265 kts 295°
2026-04-23 02:34 50.00690 7.67363 9779 ft 259 kts 299°
2026-04-23 02:35 50.01476 7.64860 9400 ft 256 kts 298°
2026-04-23 02:35 50.02245 7.62392 9039 ft 252 kts 298°
2026-04-23 02:35 50.03109 7.60081 8672 ft 243 kts 306°
2026-04-23 02:35 50.04010 7.57903 8316 ft 237 kts 306°
2026-04-23 02:36 50.05024 7.55979 7955 ft 225 kts 326°
2026-04-23 02:36 50.06364 7.54974 7610 ft 213 kts 351°
2026-04-23 02:36 50.07805 7.54951 7266 ft 205 kts 15°
2026-04-23 02:36 50.09084 7.55821 6927 ft 199 kts 35°
2026-04-23 02:37 50.10256 7.56943 6566 ft 196 kts 24°
2026-04-23 02:37 50.11590 7.57106 6206 ft 197 kts 347°
2026-04-23 02:37 50.12732 7.55961 5848 ft 202 kts 310°
2026-04-23 02:37 50.13508 7.54122 5506 ft 204 kts 306°
2026-04-23 02:38 50.14276 7.52243 5146 ft 206 kts 306°
2026-04-23 02:38 50.15029 7.50374 5010 ft 202 kts 301°
2026-04-23 02:38 50.15311 7.48236 5026 ft 207 kts 264°
2026-04-23 02:38 50.14728 7.46208 5021 ft 208 kts 226°
2026-04-23 02:39 50.13554 7.44915 5027 ft 208 kts 211°
2026-04-23 02:39 50.12335 7.43715 5014 ft 207 kts 212°
2026-04-23 02:39 50.11122 7.42504 5017 ft 207 kts 212°
2026-04-23 02:39 50.09911 7.41298 4934 ft 203 kts 212°
2026-04-23 02:40 50.08726 7.40120 4661 ft 201 kts 211°
2026-04-23 02:40 50.07558 7.38959 4387 ft 196 kts 211°
2026-04-23 02:40 50.06433 7.37841 4139 ft 187 kts 211°
2026-04-23 02:40 50.05367 7.36783 3895 ft 177 kts 211°
2026-04-23 02:41 50.04365 7.35788 3668 ft 164 kts 211°
2026-04-23 02:41 50.03438 7.34869 3448 ft 152 kts 210°
2026-04-23 02:41 50.02575 7.34014 3243 ft 143 kts 210°
2026-04-23 02:41 50.01745 7.33192 3050 ft 140 kts 209°
2026-04-23 02:42 50.00926 7.32381 2866 ft 139 kts 209°
2026-04-23 02:42 50.00110 7.31574 2677 ft 139 kts 209°
2026-04-23 02:42 49.99297 7.30769 2483 ft 138 kts 210°
2026-04-23 02:42 49.98489 7.29971 2284 ft 137 kts 211°
2026-04-23 02:43 49.97694 7.29184 2102 ft 137 kts 211°
2026-04-23 02:43 49.96882 7.28382 1901 ft 136 kts 211°
2026-04-23 02:43 49.96100 7.27606 1731 ft 135 kts 211°
2026-04-23 02:43 49.95307 7.26817 1655 ft 126 kts 211°
2026-04-23 02:44 49.94623 7.26152 1653 ft 102 kts 213°
2026-04-23 02:44 49.94305 7.25835 1672 ft 39 kts 212°
2026-04-23 02:44 49.94081 7.25615 1670 ft 38 kts 212°
2026-04-23 02:44 49.93923 7.25579 1664 ft 21 kts 128°
2026-04-23 02:45 49.93870 7.25708 1672 ft 0 kts 123°
2026-04-23 02:46 49.93870 7.25709 1672 ft 0 kts 123°
2026-04-23 02:46 49.93866 7.25717 1674 ft 1 kts 123°
2026-04-23 02:46 49.93857 7.25738 1670 ft 3 kts 123°
2026-04-23 02:46 49.93842 7.25774 1671 ft 5 kts 123°
2026-04-23 02:47 49.93821 7.25838 1668 ft 8 kts 103°
2026-04-23 02:47 49.93855 7.25918 1663 ft 11 kts 44°
2026-04-23 02:47 49.93929 7.25990 1669 ft 14 kts 33°
2026-04-23 02:47 49.94020 7.26084 1674 ft 17 kts 35°
2026-04-23 02:48 49.94123 7.26194 1662 ft 19 kts 33°
2026-04-23 02:48 49.94237 7.26306 1664 ft 20 kts 34°
2026-04-23 02:48 49.94359 7.26433 1662 ft 22 kts 34°
2026-04-23 02:48 49.94491 7.26568 1653 ft 23 kts 33°
2026-04-23 02:49 49.94623 7.26643 1651 ft 21 kts 14°
2026-04-23 02:49 49.94731 7.26733 1650 ft 13 kts 33°
2026-04-23 02:49 49.94811 7.26814 1648 ft 15 kts 30°
2026-04-23 02:49 49.94903 7.26902 1647 ft 17 kts 33°
2026-04-23 02:50 49.95005 7.27005 1645 ft 18 kts 32°
2026-04-23 02:50 49.95118 7.27117 1643 ft 20 kts 32°
2026-04-23 02:50 49.95239 7.27237 1642 ft 20 kts 33°
2026-04-23 02:50 49.95309 7.27340 1640 ft 7 kts 107°
2026-04-23 02:51 49.95281 7.27414 1640 ft 8 kts 123°
2026-04-23 02:51 49.95266 7.27451 1640 ft 1 kts 122°
2026-04-23 02:51 49.95265 7.27452 1640 ft 0 kts 122°
2026-04-23 02:52 49.95265 7.27453 1640 ft 0 kts 122°